Погода в Балашове

Хотите узнать прогноз погоды в Балашове? Тогда Вам сюда: Погода в Балашове

Поиск расширенной информации на нашем сайте:

Полезная информация:

Новости сайта



02.01.2020
Опубликован Долгосрочный прогноз погоды по городам России и ближнего зарубежья на январь 2020 года.
Карты: Прогноз на январь и февраль 2020 года, Сравнение прогнозируемой аномалии приземной температуры воздуха на январь 2020 года по разным моделям.




Погода в Балашове - сегодня

Время (UTC), дата Ветер
(°,м/с) 
Видим.   Явления Облачность Т
(°С)
Тd
(°С)
f(%) Тe
(°С)
Pmin
(гПа)
dP
(гПа)
Po
(мм)
O2
(г/м3)
Тmin Tmax R s Состояние
почвы
06 04.06.20 270 (З) 20000 м    10/8 600 м верхняя 
[Cu med, cong|Ci fib]
+18.1 +14.5 79 +27  1007.2  1.1  742  277           
09 04.06.20 230 (ЮЗ) 20000 м    5/5 600 м 
[Cu med, cong]
+21.3 +14.4 65 +29  1007.8  0.8  742  274           
12 04.06.20 240 (ЮЗ) 20000 м    5/5 600 м кучево-дожд. 
[Cb cap]
+22.7 +12.7 53 +28  1008.7  743  274           
15 04.06.20 220 (ЮЗ) 20000 м    5/1 600 м кучево-дожд., верхняя 
[Cb cap|Ci]
+21.7 +10.6 49 +24  1009.6  0.8  744  276    +23.4       
18 04.06.20 тихо ()   20000 м    4/0 верхняя 
[Ci fib]
+14.9 +12.5 86 +20  1011.5  1.4  745  282           
21 04.06.20 150 (ЮВ) 20000 м    4/0 верхняя 
[Ci fib]
+12.9 +12.5 97 +19  1013.1  1.5  746  284           
00 05.06.20 170 (Ю) 20000 м    10/0 средняя, верхняя 
[Ac lent|Ci]
+11.4 +10.9 97 +14  1014  0.8  746  287           
03 05.06.20 180 (Ю) 20000 м    10/1 1000 м кучево-дожд., средняя 
[Cb cap|Ac und]
+12.6 +11.3 92 +16  1014.4  0.5  747  285  +10.4        сухая 
06 05.06.20 290 (З) 10 км  слаб. ливневой дождь  10/6 600 м кучево-дожд., средняя 
[Cb cap|Ac trans]
+14.6 +13.8 95 +23  1015.7  1.5  748  283           
09 05.06.20 170 (Ю) 20000 м  {ливн. осадки}  9/1 1000 м средняя, верхняя 
[Cu hum|Ac trans|Ci fib]
+20.5 +13.4 64 +27  1015.6  0.2  748  278           
12 05.06.20 190 (Ю) 20000 м  {ливн. осадки}  9/4 600 м кучево-дожд., верхняя 
[Cb cap|Ci fib]
+19.9 +13.4 66 +27  1015.3  -0.4  748  278           
15 05.06.20 190 (Ю) 20000 м    1/0 средняя 
[Ac trans]
+20.6 +13 62 +26  1014.9  -0.4  747  277    +21.3     
18 05.06.20 тихо ()   20000 м    8/0 средняя, верхняя 
[Ac trans|Ci fib]
+15.1 +12.7 86 +20  1015.6  0.4  748  283           
21 05.06.20 130 (ЮВ) 20000 м    4/0 средняя, верхняя 
[Ac trans|Ci fib]
+12.1 +11.5 96 +16  1016.1  0.3  748  286           
00 06.06.20 170 (Ю) 20000 м    10/0 средняя 
[Ac trans]
+13.7 +12.8 94 +20  1016.4  0.4  748  285           
03 06.06.20 190 (Ю) 20000 м    10/10 600 м 
[Sc]
+15.4 +14.3 93 +25  1017  0.7  749  283  +11.6        сухая 
06 06.06.20 220 (ЮЗ) 20000 м    8/0 средняя 
[Ac trans]
+20.6 +15.3 72 +30  1016.4  -0.3  749  277           
09 06.06.20 230 (ЮЗ) 20000 м    10/0 средняя 
[Ac trans]
+20.2 +15.4 74 +30  1017.3  0.9  749  278           
12 06.06.20 240 (ЮЗ) 20000 м    10/0 средняя, верхняя 
[Ac trans|Ci fib]
+24.2 +14.5 55 +32  1015.8  -1.2  748  274           
15 06.06.20 240 (ЮЗ) 4{11}  20000 м    10/0 верхняя 
[Ci fib]
+24.2 +13.4 51 +30  1015.6  -0.2  748  274    +24.7       
18 06.06.20 180 (Ю) 20000 м    10/0 средняя, верхняя 
[Ac trans|Ci fib]
+18.1 +15.2 83 +29  1016.6  0.6  749  280           
21 06.06.20 200 (Ю) 20000 м    10/0 средняя, верхняя 
[Ac trans|Ci fib]
+15.4 +14.2 93 +23  1016.9  0.1  749  283           
00 07.06.20 210 (ЮЗ) 20000 м    10/0 средняя, верхняя 
[Ac trans|Ci fib]
+14.6 +13 90 +20  1017  0.1  749  284           
03 07.06.20 180 (Ю) 20000 м    10/0 средняя, верхняя 
[Ac trans|Ci fib]
+15 +13.6 91 +22  1017.6  0.6  749  283  +12.9        сухая 
06 07.06.20 230 (ЮЗ) 20000 м    10/0 верхняя 
[Ci]
+23.9 +16.1 62 +35  1017.3  0.7  749  274           
Время (UTC), дата Ветер
(°,м/с) 
Видим.   Явления Облачность Т
(°С)
Тd
(°С)
f(%) Тe
(°С)
Pmin
(гПа)
dP
(гПа)
Po
(мм)
O2
(г/м3)
Тmin Tmax R s Состояние
почвы

Для получения пояснительной информации подведите курсор к названию столбца.

ПОГОДА в Балашове - архив

Всё, что Вы хотите узнать о погоде в Балашове - удобно и подробно!

Выберите нужную дату (начиная с 1 января 2019* года) и нажмите кнопку "Найти".
Будут отображены архивные сводки погоды по пункту Балашов, начиная с указанной даты.


Отображать данные в формате CSV (для использования в таблицах Excel)


Внимание! Наш архив погоды предназначен исключительно для личного некоммерческого использования в познавательных целях. Если Вам необходимы официальные справки о состоянии погоды (для производственных, юридических, коммерческих и т.п. целей), обращайтесь в органы Росгидромета.

*Примечание: данная дата относится к архиву по метеостанциям СССР (Россия, СНГ, Балтия).
Архив по метеостанциям Зарубежной Европы и Азии (кроме Китая) хранится 10 дней, по другим регионам земного шара (Китай, Африка, Америка, Австралия, Океания) - 1 день.

Балашов - район местоположения метеостанции


Название, широта, долгота, высота метеостанции:
Балашов 51.6°ш. 43.2°д. 159 м над ур. моря [Российская Федерация]

Дополнительная информация

В oтличие oт бoльшинства пoгoдных сайтoв мы публикуем пoдрoбную метеoинфoрмацию в детальнoм прoфессиoнальнoм фoрмате.

Характеристики температуры и влажнoсти вoздуха измеряются на высoте 2 м в тени вдали oт зданий и деревьев.
Скoрoсть ветра измеряется на высoте 10 м (на урoвне рoста челoвека скoрoсть ветра ниже в 1.5-2 раза). Если метеoстанция нахoдится в гoрoде или в лесу, тo скoрoсть ветра занижена на 2-4 м/с пo сравнению с oткрытым местoм. Скoрoсть ветра над акватoриями крупных рек и oзёр, а также на вершинах хoлмoв на 2-5 м/с выше, чем в oбычных услoвиях.
Атмoсфернoе давление в разных тoчках местнoсти мoжет значительнo oтличаться oт давления на метеoстанции, в зависимoсти oт услoвий рельефа (при пoдъёме на 10 м давление пoнижается примернo на 1 мм рт.ст.).